Location: Arrien
(42.8963°N, 1.0429°E)
Time: 09:48:26
(UTC+00:00)

SL-16 R/B - Pass Details

Date: 15 March 2026
Orbit: 841 x 845 km, 71.0° (Epoch: 19 April)

Event Time Altitude Azimuth Distance (km) Brightness Sun altitude
Exits shadow 01:54:35 12° 357° (N) 2,355 4.9 -42.5°
Drops below altitude 10° 01:54:55 10° 359° (N) 2,441 5.0 -42.5°
Sets 01:58:05 0° 16° (NNE) 3,411 6.1 -42.1°
